User: anonymous   Login
Location: SAPM � Hemmingford
(45.0500°N, 73.5833°W)
Time: 06:29:33
(UTC-04:00)
Language:

Cosmos 1674 Rocket - Orbit

View from above orbital plane
View from above orbital plane
View from above satellite
View from above satellite

Ground track
Ground track

The orbit data is extracted from the following two-line orbital elements,

1 15945U 85069B   17206.25080001 +.00000094 +00000-0 +83526-5 0  9996
2 15945 082.5281 097.3809 0020424 152.5602 207.6697 14.83931006705599
Epoch (UTC): 25 July 2017 06:01:09
Eccentricity: 0.0020424
inclination: 82.5281°
perigee height: 602 km
apogee height: 631 km
right ascension of ascending node: 97.3809°
argument of perigee: 152.5602°
revolutions per day: 14.83931006
mean anomaly at epoch: 207.6697°
orbit number at epoch: 70559

The dashed part of the orbit path shows where the satellite is in the earth's shadow,  

DLR